Weather History for CYYT - December, 2013

Change the Weather History Date:

Thursday, December 12, 2013

  Actual Average Record
Temperature  
Mean Temperature 16 °F -  
Max Temperature 21 °F 33 °F 60 °F (2008)
Min Temperature 12 °F 21 °F 8 °F (2002)
Degree Days  
Heating Degree Days 48    
Moisture  
Dew Point 7 °F    
Average Humidity 64    
Maximum Humidity 85    
Minimum Humidity 39    
Precipitation  
Precipitation 0.00 in 0.19 in - ()
Sea Level Pressure  
Sea Level Pressure 29.70 in    
Wind  
Wind Speed 17 mph ()    
Max Wind Speed 29 mph    
Max Gust Speed 41 mph    
Visibility 15.0 miles    
Events      
Averages and records for this station are not official NWS values.
T = Trace of Precipitation, MM = Missing Value Source: Averaged Metar Reports

Daily Weather History Graph

Daily Weather History Graph

Search for Another Location

Airport or City:

Trip Planner

Search our weather history database for the weather conditions in past years. The results will help you decide how hot, cold, wet, or windy it might be!

Date:

Astronomy

Dec. 12, 2013 Rise Set
Actual Time 7:40 AM NST 4:09 PM NST
Civil Twilight 7:04 AM NST 4:45 PM NST
Nautical Twilight 6:25 AM NST 5:24 PM NST
Astronomical Twilight 5:47 AM NST 6:01 PM NST
Moon 1:27 PM NST (12/12) 2:40 AM NST (12/12)
Length of Visible Light 9h 40m
Length of Day
8h 29m
Waxing Gibbous, 80% of the Moon is Illuminated
Dec 12
Waxing Gibbous
Dec 17
Full
Dec 25
Last Quarter
Jan 1
New
Jan 8
First Quarter

Hourly Weather History & Observations

Time (NST) Temp. Windchill Dew Point Humidity Pressure Visibility Wind Dir Wind Speed Gust Speed Precip Events Conditions
12:30 AM 17.6 °F -1.6 °F 5.0 °F 58% 29.71 in 15.0 mi West 28.8 mph 41.4 mph N/A   Partly Cloudy
1:30 AM 17.6 °F -1.3 °F 5.0 °F 58% 29.72 in 15.0 mi West 27.6 mph 34.5 mph N/A   Partly Cloudy
2:30 AM 17 °F - 3 °F 39% 29.73 in 15 mi West 24.2 mph - -   Partly Cloudy
2:30 AM 15.8 °F -3.1 °F 3.2 °F 58% 29.73 in 15.0 mi West 25.3 mph - N/A   Partly Cloudy
3:30 AM 15.8 °F 0.9 °F 3.2 °F 58% 29.73 in 15.0 mi West 15.0 mph 21.9 mph N/A   Partly Cloudy
4:30 AM 15.8 °F 1.4 °F 8.6 °F 73% 29.73 in 15.0 mi West 13.8 mph - N/A   Overcast
5:30 AM 17.6 °F 4.3 °F 8.6 °F 68% 29.72 in 15.0 mi West 12.7 mph - N/A   Mostly Cloudy
6:30 AM 15.8 °F 4.2 °F 8.6 °F 73% 29.72 in 15.0 mi WSW 9.2 mph - N/A   Partly Cloudy
7:30 AM 12.2 °F -1.0 °F 8.6 °F 85% 29.72 in 15.0 mi SSW 10.4 mph - N/A   Partly Cloudy
8:30 AM 16 °F - 10 °F 69% 29.73 in 15 mi SW 11.5 mph - -   Partly Cloudy
8:30 AM 15.8 °F 2.7 °F 10.4 °F 79% 29.73 in 15.0 mi SW 11.5 mph - N/A   Scattered Clouds
9:30 AM 19.4 °F 5.5 °F 8.6 °F 63% 29.73 in 15.0 mi West 15.0 mph 21.9 mph N/A   Scattered Clouds
10:30 AM 19.4 °F 5.0 °F 6.8 °F 58% 29.74 in 15.0 mi WNW 16.1 mph 24.2 mph N/A   Partly Cloudy
11:30 AM 19.4 °F 4.1 °F 6.8 °F 58% 29.71 in 15.0 mi West 18.4 mph - N/A   Partly Cloudy
12:30 PM 19.4 °F 1.1 °F 5.0 °F 54% 29.70 in 15.0 mi West 27.6 mph 35.7 mph N/A   Scattered Clouds
1:30 PM 21.2 °F 7.3 °F 8.6 °F 58% 29.67 in 15.0 mi West 16.1 mph 27.6 mph N/A   Mostly Cloudy
2:30 PM 20 °F - 8 °F 47% 29.67 in 15 mi West 16.1 mph - -   Mostly Cloudy
2:30 PM 19.4 °F 6.6 °F 8.6 °F 63% 29.67 in 15.0 mi West 12.7 mph 23.0 mph N/A   Mostly Cloudy
3:30 PM 19.4 °F 4.5 °F 8.6 °F 63% 29.68 in 15.0 mi West 17.3 mph 25.3 mph N/A   Mostly Cloudy
4:30 PM 17.6 °F 5.0 °F 10.4 °F 73% 29.68 in 15.0 mi West 11.5 mph 18.4 mph N/A   Mostly Cloudy
5:30 PM 19.4 °F 6.0 °F 12.2 °F 74% 29.68 in 15.0 mi West 13.8 mph - N/A   Mostly Cloudy
6:30 PM 17.6 °F 5.0 °F 10.4 °F 73% 29.68 in 15.0 mi West 11.5 mph - N/A   Mostly Cloudy
7:30 PM 17.6 °F 4.3 °F 10.4 °F 73% 29.68 in 15.0 mi West 12.7 mph - N/A   Mostly Cloudy
8:30 PM 17 °F - 8 °F 56% 29.68 in 15 mi West 18.4 mph - -   Mostly Cloudy
8:30 PM 17.6 °F 2.7 °F 8.6 °F 68% 29.68 in 15.0 mi West 16.1 mph 24.2 mph N/A   Mostly Cloudy
9:30 PM 15.8 °F -0.6 °F 3.2 °F 58% 29.69 in 15.0 mi West 18.4 mph 25.3 mph N/A   Scattered Clouds
10:30 PM 14.0 °F -0.8 °F 5.0 °F 67% 29.68 in 15.0 mi WNW 13.8 mph 21.9 mph N/A   Mostly Cloudy
11:30 PM 14.0 °F -3.4 °F 3.2 °F 62% 29.67 in 15.0 mi WNW 19.6 mph 27.6 mph N/A   Mostly Cloudy